Location: Lugrin
(46.4033°N, 6.6674°E)
Time: 11:38:28
(UTC+00:00)

Meteor 1-15 Rocket - Pass Details

Date: 18 September 2020
Orbit: 840 x 907 km, 81.2° (Epoch: 24 October)

Event Time Altitude Azimuth Distance (km) Brightness Sun altitude
Rises 19:50:22 0° 191° (SSW) 3,391 7.2 -22.6°
Reaches altitude 10° 19:52:45 10° 192° (SSW) 2,466 6.5 -23.0°
Maximum altitude 19:58:22 83° 281° (W) 870 4.2 -23.8°
Drops below altitude 10° 20:04:06 10° 10° (N) 2,524 6.9 -24.7°
Sets 20:06:34 0° 11° (N) 3,476 7.7 -25.1°
